SCOUT B DEB, 2800

Orbit data source: Space-Track

SCOUT B DEB, 2800 is space debris in LEO originally from a launch on Thu, 04 Aug 1966 UTC launched from the Air Force Western Test Range (AFWTR). Debris objects in space refer to the collection of defunct objects orbiting the Earth. Examples of debris include non-operational satellites, rocket bodies, and fragments generated from explosions, collisions, or faulty payload assembly.

Loading next visibility...
Identifier
2800, 1966-070D
Orbit
LEO
Country
Flag of USUS
Related business
Manufacturer
Unknown
Mission
Spacecraft
Bus & Motor
Unknown
Mass
Unknown
Launch date (UTC)
1966-08-04 (60 years ago)
Launch vehicle
Unknown
Launch site
Air Force Western Test Range (AFWTR)
Object type
Payload
Rocket body
Debris
Shape & HBR
Unknown shape, 0.1 m
Radar Cross Section
Small (<0.1 m²)

Expand to show TLE details & history
Last TLE update: 13 hours ago

TLE from 13 hours ago
0 SCOUT B DEB
1  2800U 66070D   26129.39374413  .00008369  00000-0  10602-2 0  9990
2  2800  81.3997 273.5786 1387316 135.4184 236.7339 12.43255713579953
Epoch: 2026-05-09T09:26Z
TLE epoch observation values (Epoch: 2026-05-09T09:26:59.492Z)
Latitude
-0.00002°
Longitude
-95.3811°
Altitude
2,188.98 km
Speed
6.515 km/s
True Right ascension
18h 14m 18s
True Declination
0° 00' 00"
Sunlit
Object was in daylight at epoch
Visualization orbit readout
Latitude
Unknown
Longitude
Unknown
Altitude
Unknown
Speed
Unknown
Apparent Right ascension
Unknown
Apparent Declination
Unknown
Sunlit
N/A
Visualization observer readout
Local Sidereal Time
06:54:17
Azimuth
Unknown
Elevation
Unknown
Doppler factor
Unknown
Orbital elements
Apogee altitude
2,581.73 km
Perigee altitude
398.57 km
Semi-major axis
7,868.287 km
Eccentricity
0.13873
Inclination
81.3997°
RAAN
273.5786°
Arg. of periapsis
135.4184°
True anomaly
224.68765°
Mean anomaly
236.7339°
Eccentric anomaly
230.59232°
Mean motion
3.10973 °/min
Orbital period
115.77 mins
BSTAR
0.0010602
Loading maneuver chart data...
Computing Atmospheric mass density...
Loading historical data...
Loading historical data...
Loading historical data...
Loading historical data...
Loading historical data...
Loading historical data...
Loading historical data...
Other satellites on launch #70 in the year 1966 (1966-08-04 UTC)

Documentation

Showing up to 5 results
|